Aérodrome :
LOGIN :

S'inscrire | Disclaimer

   EN    FR    IT 

 










Légende :    VFR   VFR Marginal   IFR   IFR Intensif   IFR Très Intensif
Visi : 
Plafond : 
>= 8 km
>= 3000ft
5 à 8 km
1000 à 3000 ft
1500m à 5 km
500 à 1000 ft
800 à 1500m
200 à 500 ft
< 800m
< 200 ft
Symboles :   Orages  Brouillard  Fortes neiges  Fortes précipitations  Vent > 20 kt
SIGMETs :   Divers  Orages  Givrage  Turbulence  Onde Orograph.  Cendres Volcan.







- Altitude de l'aérodrome : 1325 ft
- Code IATA : EBU
- Voir les cartes d'approche


LFMH - St-Etienne Boutheon

DERNIER METAR :
  • 161600Z AUTO 15008KT CAVOK 19/M02 Q1025 NOSIG

METARs EXPIRÉS :
  • 161530Z AUTO 15008KT CAVOK 20/M02 Q1025 NOSIG
  • 161500Z AUTO 15008KT CAVOK 21/M02 Q1026 NOSIG
  • 161430Z AUTO 15007KT CAVOK 21/M04 Q1026 NOSIG
  • 161400Z AUTO 18008KT 140V210 CAVOK 21/M06 Q1026 NOSIG
  • 161330Z AUTO 20010KT 170V240 CAVOK 21/M08 Q1026 NOSIG

TAF TAF LFMH
Valide du 16 à 15h jusqu'au 17 à 15h UTC


161400Z 1615/1715 17007KT CAVOK
ATIS : +33 4 77 36 17 51
Pas de NOTAMs connus pour ce terrain.



MET'MAP, la Météo Aéronautique d'un coup d'oeil ! - Copyright ORBIFLY Décembre 2007 - Disclaimer

ORBIFLY MET'MAP TEAM :

Programmation & Développement : Alexandra Zaïnal
Conception & Développement : Baudouin d'Aumeries
Co-Programmation & Développement : Marc-Olivier Méhu
Soutien technique & logistique : Manuel Goepfert

Contact : metmap@orbifly.com




SOURCES & CREDITS :

   NOAA